datetime,release volume
1973-05-10,0.0
1973-05-11,0.0
1973-05-12,0.0
1973-05-13,0.0
1973-05-14,0.0
1973-05-15,773.99008
1973-05-16,1080.99174
1973-05-17,1122.98182
1973-05-18,1415.98017
1973-05-19,1415.98017
1973-05-20,1415.98017
1973-05-21,891.98678
1973-05-22,891.98678
1973-05-23,1052.98512
1973-05-24,1052.98512
1973-05-25,1052.98512
1973-05-26,1052.98512
1973-05-27,1052.98512
1973-05-28,1052.98512
1973-05-29,1052.98512
1973-05-30,1093.98347
1973-05-31,1093.98347
1973-06-01,1276.97851
1973-06-02,1276.97851
1973-06-03,1276.97851
1973-06-04,1276.97851
1973-06-05,1276.97851
1973-06-06,1276.97851
1973-06-07,1276.97851
1973-06-08,1504.97851
1973-06-09,1504.97851
1973-06-10,1504.97851
1973-06-11,1558.9686
1973-06-12,1593.97686
1973-06-13,1593.97686
1973-06-14,1522.9686
1973-06-15,1575.98678
1973-06-16,1575.98678
1973-06-17,1575.98678
1973-06-18,1347.98678
1973-06-19,939.98678
1973-06-20,923.98017
1973-06-21,923.98017
1973-06-22,923.98017
1973-06-23,923.98017
1973-06-24,923.98017
1973-06-25,1149.97686
1973-06-26,1347.98678
1973-06-27,1417.98347
1973-06-28,1417.98347
1973-06-29,1328.98512
1973-06-30,1328.98512
1973-07-01,1328.98512
1973-07-02,998.99504
1973-07-03,908.98512
1973-07-04,908.98512
1973-07-05,908.98512
1973-07-06,736.99835
1973-07-07,736.99835
1973-07-08,736.99835
1973-07-09,736.99835
1973-07-10,923.98017
1973-07-11,923.98017
1973-07-12,923.98017
1973-07-13,1040.98512
1973-07-14,1040.98512
1973-07-15,1040.98512
1973-07-16,1040.98512
1973-07-17,977.99008
1973-07-18,977.99008
1973-07-19,977.99008
1973-07-20,977.99008
1973-07-21,977.99008
1973-07-22,771.98678
1973-07-23,554.99504
1973-07-24,554.99504
1973-07-25,554.99504
1973-07-26,554.99504
1973-07-27,554.99504
1973-07-28,554.99504
1973-07-29,554.99504
1973-07-30,427.00165
1973-07-31,427.00165
1973-08-01,427.00165
1973-08-02,427.00165
1973-08-03,427.00165
1973-08-04,427.00165
1973-08-05,427.00165
1973-08-06,427.00165
1973-08-07,316.99835
1973-08-08,316.99835
1973-08-09,225.99669
1973-08-10,225.99669
1973-08-11,225.99669
1973-08-12,225.99669
1973-08-13,225.99669
1973-08-14,225.99669
1973-08-15,225.99669
1973-08-16,225.99669
1973-08-17,225.99669
1973-08-18,225.99669
1973-08-19,225.99669
1973-08-20,225.99669
1973-08-21,225.99669
1973-08-22,225.99669
1973-08-23,225.99669
1973-08-24,225.99669
1973-08-25,225.99669
1973-08-26,225.99669
1973-08-27,225.99669
1973-08-28,230.00331
1973-08-29,259.00165
1973-08-30,259.00165
1973-08-31,259.00165
1973-09-01,259.00165
1973-09-02,259.00165
1973-09-03,259.00165
1973-09-04,255.98678
1973-09-05,255.98678
1973-09-06,297.99669
1973-09-07,297.99669
1973-09-08,297.99669
1973-09-09,297.99669
1973-09-10,297.99669
1973-09-11,297.99669
1973-09-12,259.99339
1973-09-13,259.99339
1973-09-14,259.99339
1973-09-15,259.99339
1973-09-16,259.99339
1973-09-17,259.99339
1973-09-18,259.99339
1973-09-19,249.99669
1973-09-20,249.99669
1973-09-21,199.99339
1973-09-22,199.99339
1973-09-23,199.99339
1973-09-24,199.99339
1973-09-25,199.99339
1973-09-26,199.99339
1973-09-27,199.99339
1973-09-28,199.99339
1973-09-29,199.99339
1973-09-30,199.99339
1973-10-01,199.99339
1973-10-02,199.99339
1973-10-03,199.99339
1973-10-04,199.99339
1973-10-05,199.99339
1973-10-06,199.99339
1973-10-07,199.99339
1973-10-08,199.99339
1973-10-09,199.99339
1973-10-10,199.99339
1973-10-11,199.99339
1973-10-12,199.99339
1973-10-13,213.99669
1973-10-14,213.99669
1973-10-15,213.99669
1973-10-16,213.99669
1973-10-17,213.99669
1973-10-18,213.99669
1973-10-19,213.99669
1973-10-20,213.99669
1973-10-21,213.99669
1973-10-22,213.99669
1973-10-23,213.99669
1973-10-24,213.99669
1973-10-25,209.99008
1973-10-26,209.99008
1973-10-27,209.99008
1973-10-28,209.99008
1973-10-29,209.99008
1973-10-30,209.99008
1973-10-31,209.99008
1973-11-01,209.99008
1973-11-02,136.00661
1973-11-03,136.00661
1973-11-04,136.00661
1973-11-05,136.00661
1973-11-06,136.00661
1973-11-07,136.00661
1973-11-08,136.00661
1973-11-09,136.00661
1973-11-10,136.00661
1973-11-11,136.00661
1973-11-12,105.00496
1973-11-13,105.00496
1973-11-14,105.00496
1973-11-15,105.00496
1973-11-16,105.00496
1973-11-17,105.00496
1973-11-18,105.00496
1973-11-19,105.00496
1973-11-20,105.00496
1973-11-21,105.00496
1973-11-22,105.00496
1973-11-23,105.00496
1973-11-24,105.00496
1973-11-25,105.00496
1973-11-26,105.00496
1973-11-27,105.00496
1973-11-28,105.00496
1973-11-29,105.00496
1973-11-30,105.00496
1973-12-01,105.00496
1973-12-02,105.00496
1973-12-03,105.00496
1973-12-04,105.00496
1973-12-05,105.00496
1973-12-06,105.00496
1973-12-07,105.00496
1973-12-08,105.00496
1973-12-09,105.00496
1973-12-10,105.00496
1973-12-11,105.00496
1973-12-12,105.00496
1973-12-13,105.00496
1973-12-14,105.00496
1973-12-15,105.00496
1973-12-16,105.00496
1973-12-17,105.00496
1973-12-18,76.99835
1973-12-19,78.60496
1973-12-20,78.60496
1973-12-21,78.60496
1973-12-22,78.60496
1973-12-23,78.60496
1973-12-24,78.60496
1973-12-25,78.60496
1973-12-26,78.60496
1973-12-27,78.60496
1973-12-28,78.60496
1973-12-29,78.60496
1973-12-30,78.60496
1973-12-31,78.60496
1974-01-01,78.60496
1974-01-02,78.60496
1974-01-03,78.60496
1974-01-04,78.60496
1974-01-05,78.60496
1974-01-06,78.60496
1974-01-07,78.60496
1974-01-08,78.60496
1974-01-09,78.60496
1974-01-10,78.60496
1974-01-11,78.60496
1974-01-12,78.60496
1974-01-13,78.60496
1974-01-14,78.60496
1974-01-15,78.60496
1974-01-16,78.60496
1974-01-17,78.60496
1974-01-18,78.60496
1974-01-19,78.60496
1974-01-20,78.60496
1974-01-21,78.60496
1974-01-22,78.60496
1974-01-23,78.60496
1974-01-24,78.60496
1974-01-25,78.60496
1974-01-26,78.60496
1974-01-27,78.60496
1974-01-28,78.60496
1974-01-29,78.60496
1974-01-30,78.60496
1974-01-31,78.60496
1974-02-01,78.60496
1974-02-02,78.60496
1974-02-03,78.60496
1974-02-04,78.60496
1974-02-05,78.60496
1974-02-06,78.60496
1974-02-07,78.60496
1974-02-08,78.60496
1974-02-09,78.60496
1974-02-10,78.60496
1974-02-11,78.60496
1974-02-12,78.60496
1974-02-13,78.60496
1974-02-14,78.60496
1974-02-15,78.60496
1974-02-16,78.60496
1974-02-17,78.60496
1974-02-18,78.60496
1974-02-19,78.60496
1974-02-20,78.60496
1974-02-21,78.60496
1974-02-22,78.60496
1974-02-23,78.60496
1974-02-24,78.60496
1974-02-25,78.60496
1974-02-26,78.60496
1974-02-27,78.60496
1974-02-28,78.60496
1974-03-01,78.60496
1974-03-02,78.60496
1974-03-03,78.60496
1974-03-04,78.60496
1974-03-05,78.60496
1974-03-06,78.60496
1974-03-07,78.60496
1974-03-08,78.60496
1974-03-09,78.60496
1974-03-10,78.60496
1974-03-11,78.60496
1974-03-12,78.60496
1974-03-13,78.60496
1974-03-14,78.60496
1974-03-15,78.60496
1974-03-16,78.60496
1974-03-17,78.60496
1974-03-18,78.60496
1974-03-19,78.60496
1974-03-20,78.60496
1974-03-21,78.60496
1974-03-22,78.60496
1974-03-23,78.60496
1974-03-24,78.60496
1974-03-25,78.60496
1974-03-26,78.60496
1974-03-27,78.60496
1974-03-28,78.60496
1974-03-29,78.60496
1974-03-30,78.60496
1974-03-31,78.60496
1974-04-01,78.60496
1974-04-02,78.60496
1974-04-03,78.60496
1974-04-04,78.60496
1974-04-05,78.60496
1974-04-06,78.60496
1974-04-07,78.60496
1974-04-08,78.60496
1974-04-09,78.60496
1974-04-10,78.60496
1974-04-11,78.60496
1974-04-12,78.60496
1974-04-13,78.60496
1974-04-14,78.60496
1974-04-15,78.60496
1974-04-16,78.60496
1974-04-17,78.60496
1974-04-18,78.60496
1974-04-19,78.60496
1974-04-20,78.60496
1974-04-21,78.60496
1974-04-22,78.60496
1974-04-23,78.60496
1974-04-24,78.60496
1974-04-25,78.60496
1974-04-26,78.60496
1974-04-27,78.60496
1974-04-28,78.60496
1974-04-29,78.60496
1974-04-30,78.60496
1974-05-01,78.60496
1974-05-02,78.60496
1974-05-03,78.60496
1974-05-04,78.60496
1974-05-05,78.60496
1974-05-06,78.60496
1974-05-07,78.60496
1974-05-08,78.60496
1974-05-09,78.60496
1974-05-10,78.60496
1974-05-11,78.60496
1974-05-12,78.60496
1974-05-13,78.60496
1974-05-14,78.60496
1974-05-15,78.60496
1974-05-16,78.60496
1974-05-17,836.2314
1974-05-18,836.2314
1974-05-19,836.2314
1974-05-20,836.2314
1974-05-21,1540.97851
1974-05-22,1647.96694
1974-05-23,1647.96694
1974-05-24,1679.98017
1974-05-25,1679.98017
1974-05-26,1665.97686
1974-05-27,1705.98347
1974-05-28,2464.95868
1974-05-29,2262.96198
1974-05-30,2760.95207
1974-05-31,2704.95868
1974-06-01,2362.9686
1974-06-02,2201.97025
1974-06-03,2345.97025
1974-06-04,2345.97025
1974-06-05,2105.97025
1974-06-06,2153.97025
1974-06-07,1522.9686
1974-06-08,1522.9686
1974-06-09,1522.9686
1974-06-10,1431.98678
1974-06-11,1431.98678
1974-06-12,1612.97851
1974-06-13,1612.97851
1974-06-14,1865.97025
1974-06-15,1865.97025
1974-06-16,1865.97025
1974-06-17,1865.97025
1974-06-18,1865.97025
1974-06-19,1804.97851
1974-06-20,1764.9719
1974-06-21,1764.9719
1974-06-22,1764.9719
1974-06-23,1764.9719
1974-06-24,1292.98512
1974-06-25,1197.97686
1974-06-26,1197.97686
1974-06-27,1213.98347
1974-06-28,1229.99008
1974-06-29,1229.99008
1974-06-30,1229.99008
1974-07-01,1229.99008
1974-07-02,1504.97851
1974-07-03,1197.97686
1974-07-04,844.97851
1974-07-05,614.99504
1974-07-06,614.99504
1974-07-07,614.99504
1974-07-08,614.99504
1974-07-09,614.99504
1974-07-10,604.99835
1974-07-11,604.99835
1974-07-12,669.99669
1974-07-13,669.99669
1974-07-14,669.99669
1974-07-15,630.98182
1974-07-16,780.99174
1974-07-17,780.99174
1974-07-18,780.99174
1974-07-19,780.99174
1974-07-20,780.99174
1974-07-21,780.99174
1974-07-22,780.99174
1974-07-23,499.00165
1974-07-24,499.00165
1974-07-25,499.00165
1974-07-26,499.00165
1974-07-27,499.00165
1974-07-28,499.00165
1974-07-29,499.00165
1974-07-30,435.98678
1974-07-31,372.0
1974-08-01,372.0
1974-08-02,372.0
1974-08-03,372.0
1974-08-04,372.0
1974-08-05,372.0
1974-08-06,346.98843
1974-08-07,346.98843
1974-08-08,346.98843
1974-08-09,346.98843
1974-08-10,346.98843
1974-08-11,346.98843
1974-08-12,346.98843
1974-08-13,346.98843
1974-08-14,189.99669
1974-08-15,189.99669
1974-08-16,189.99669
1974-08-17,189.99669
1974-08-18,189.99669
1974-08-19,189.99669
1974-08-20,189.99669
1974-08-21,384.99174
1974-08-22,384.99174
1974-08-23,384.99174
1974-08-24,384.99174
1974-08-25,384.99174
1974-08-26,384.99174
1974-08-27,367.00165
1974-08-28,367.00165
1974-08-29,367.00165
1974-08-30,367.00165
1974-08-31,367.00165
1974-09-01,367.00165
1974-09-02,367.00165
1974-09-03,346.98843
1974-09-04,367.00165
1974-09-05,367.00165
1974-09-06,367.00165
1974-09-07,367.00165
1974-09-08,367.00165
1974-09-09,367.00165
1974-09-10,367.00165
1974-09-11,297.99669
1974-09-12,297.99669
1974-09-13,297.99669
1974-09-14,297.99669
1974-09-15,297.99669
1974-09-16,297.99669
1974-09-17,297.99669
1974-09-18,225.99669
1974-09-19,225.99669
1974-09-20,225.99669
1974-09-21,245.99008
1974-09-22,245.99008
1974-09-23,245.99008
1974-09-24,245.99008
1974-09-25,187.99339
1974-09-26,187.99339
1974-09-27,187.99339
1974-09-28,187.99339
1974-09-29,187.99339
1974-09-30,187.99339
1974-10-01,107.00826
1974-10-02,107.00826
1974-10-03,107.00826
1974-10-04,107.00826
1974-10-05,107.00826
1974-10-06,107.00826
1974-10-07,107.00826
1974-10-08,96.99174
1974-10-09,93.00496
1974-10-10,93.00496
1974-10-11,93.00496
1974-10-12,93.00496
1974-10-13,93.00496
1974-10-14,93.00496
1974-10-15,93.00496
1974-10-16,93.00496
1974-10-17,96.99174
1974-10-18,96.99174
1974-10-19,96.99174
1974-10-20,96.99174
1974-10-21,96.99174
1974-10-22,96.99174
1974-10-23,67.00165
1974-10-24,67.00165
1974-10-25,67.00165
1974-10-26,67.00165
1974-10-27,67.00165
1974-10-28,67.00165
1974-10-29,67.00165
1974-10-30,67.00165
1974-10-31,67.00165
1974-11-01,67.00165
1974-11-02,67.00165
1974-11-03,67.00165
1974-11-04,67.00165
1974-11-05,67.00165
1974-11-06,67.00165
1974-11-07,79.99339
1974-11-08,79.99339
1974-11-09,79.99339
1974-11-10,79.99339
1974-11-11,79.99339
1974-11-12,79.99339
1974-11-13,79.99339
1974-11-14,60.0
1974-11-15,60.0
1974-11-16,60.0
1974-11-17,60.0
1974-11-18,60.0
1974-11-19,60.0
1974-11-20,60.0
1974-11-21,60.0
1974-11-22,60.0
1974-11-23,60.0
1974-11-24,60.0
1974-11-25,60.0
1974-11-26,60.0
1974-11-27,60.0
1974-11-28,60.0
1974-11-29,60.0
1974-11-30,60.0
1974-12-01,60.0
1974-12-02,60.0
1974-12-03,60.0
1974-12-04,74.00331
1974-12-05,74.00331
1974-12-06,74.00331
1974-12-07,74.00331
1974-12-08,74.00331
1974-12-09,64.99835
1974-12-10,
1974-12-11,
1974-12-12,
1974-12-13,
1974-12-14,
1974-12-15,
1974-12-16,
1974-12-17,
1974-12-18,
1974-12-19,
1974-12-20,
1974-12-21,
1974-12-22,
1974-12-23,
1974-12-24,
1974-12-25,
1974-12-26,
1974-12-27,
1974-12-28,
1974-12-29,
1974-12-30,
1974-12-31,
1975-01-01,
1975-01-02,
1975-01-03,
1975-01-04,
1975-01-05,
1975-01-06,
1975-01-07,
1975-01-08,
1975-01-09,
1975-01-10,
1975-01-11,76.44298
1975-01-12,76.44298
1975-01-13,76.44298
1975-01-14,76.44298
1975-01-15,76.44298
1975-01-16,76.44298
1975-01-17,76.44298
1975-01-18,76.44298
1975-01-19,76.44298
1975-01-20,76.44298
1975-01-21,76.44298
1975-01-22,76.44298
1975-01-23,76.44298
1975-01-24,76.44298
1975-01-25,76.44298
1975-01-26,76.44298
1975-01-27,76.44298
1975-01-28,76.44298
1975-01-29,76.44298
1975-01-30,76.44298
1975-01-31,76.44298
1975-02-01,76.44298
1975-02-02,76.44298
1975-02-03,76.44298
1975-02-04,76.44298
1975-02-05,76.44298
1975-02-06,76.44298
1975-02-07,76.44298
1975-02-08,76.44298
1975-02-09,76.44298
1975-02-10,76.44298
1975-02-11,76.44298
1975-02-12,76.44298
1975-02-13,76.44298
1975-02-14,76.44298
1975-02-15,76.44298
1975-02-16,76.44298
1975-02-17,76.44298
1975-02-18,76.44298
1975-02-19,76.44298
1975-02-20,76.44298
1975-02-21,76.44298
1975-02-22,76.44298
1975-02-23,76.44298
1975-02-24,76.44298
1975-02-25,76.44298
1975-02-26,76.44298
1975-02-27,76.44298
1975-02-28,76.44298
1975-03-01,76.44298
1975-03-02,76.44298
1975-03-03,76.44298
1975-03-04,76.44298
1975-03-05,76.44298
1975-03-06,76.44298
1975-03-07,76.44298
1975-03-08,76.44298
1975-03-09,76.44298
1975-03-10,76.44298
1975-03-11,76.44298
1975-03-12,76.44298
1975-03-13,76.44298
1975-03-14,76.44298
1975-03-15,76.44298
1975-03-16,76.44298
1975-03-17,76.44298
1975-03-18,76.44298
1975-03-19,76.44298
1975-03-20,76.44298
1975-03-21,76.44298
1975-03-22,76.44298
1975-03-23,76.44298
1975-03-24,76.44298
1975-03-25,76.44298
1975-03-26,76.44298
1975-03-27,76.44298
1975-03-28,76.44298
1975-03-29,76.44298
1975-03-30,76.44298
1975-03-31,76.44298
1975-04-01,76.44298
1975-04-02,76.44298
1975-04-03,76.44298
1975-04-04,76.44298
1975-04-05,76.44298
1975-04-06,76.44298
1975-04-07,76.44298
1975-04-08,76.44298
1975-04-09,76.44298
1975-04-10,76.44298
1975-04-11,76.44298
1975-04-12,76.44298
1975-04-13,76.44298
1975-04-14,76.44298
1975-04-15,76.44298
1975-04-16,76.44298
1975-04-17,76.44298
1975-04-18,76.44298
1975-04-19,76.44298
1975-04-20,76.44298
1975-04-21,76.44298
1975-04-22,76.44298
1975-04-23,76.44298
1975-04-24,76.44298
1975-04-25,76.44298
1975-04-26,76.44298
1975-04-27,76.44298
1975-04-28,76.44298
1975-04-29,76.44298
1975-04-30,76.44298
1975-05-01,76.44298
1975-05-02,76.44298
1975-05-03,76.44298
1975-05-04,76.44298
1975-05-05,76.44298
1975-05-06,76.44298
1975-05-07,76.44298
1975-05-08,76.44298
1975-05-09,76.44298
1975-05-10,76.44298
1975-05-11,76.44298
1975-05-12,76.44298
1975-05-13,76.44298
1975-05-14,76.44298
1975-05-15,76.44298
1975-05-16,76.44298
1975-05-17,197.99008
1975-05-18,197.99008
1975-05-19,197.99008
1975-05-20,197.99008
1975-05-21,197.99008
1975-05-22,197.99008
1975-05-23,197.99008
1975-05-24,197.99008
1975-05-25,197.99008
1975-05-26,197.99008
1975-05-27,197.99008
1975-05-28,683.98017
1975-05-29,673.98347
1975-05-30,594.98182
1975-05-31,594.98182
1975-06-01,594.98182
1975-06-02,594.98182
1975-06-03,594.98182
1975-06-04,792.99174
1975-06-05,1510.9686
1975-06-06,1510.9686
1975-06-07,1510.9686
1975-06-08,1510.9686
1975-06-09,1510.9686
1975-06-10,1338.98182
1975-06-11,1338.98182
1975-06-12,1338.98182
1975-06-13,1487.98017
1975-06-14,1487.98017
1975-06-15,1804.97851
1975-06-16,2082.96198
1975-06-17,2141.97025
1975-06-18,2141.97025
1975-06-19,1865.97025
1975-06-20,2211.96694
1975-06-21,2211.96694
1975-06-22,2211.96694
1975-06-23,2082.96198
1975-06-24,1612.97851
1975-06-25,1804.97851
1975-06-26,1487.98017
1975-06-27,1276.97851
1975-06-28,1276.97851
1975-06-29,1276.97851
1975-06-30,1397.97025
1975-07-01,1764.9719
1975-07-02,2449.96364
1975-07-03,2578.9686
1975-07-04,2578.9686
1975-07-05,2578.9686
1975-07-06,2578.9686
1975-07-07,2744.96529
1975-07-08,2661.95702
1975-07-09,2950.94876
1975-07-10,2855.96033
1975-07-11,2345.97025
1975-07-12,2345.97025
1975-07-13,2345.97025
1975-07-14,2578.9686
1975-07-15,2578.9686
1975-07-16,2526.96198
1975-07-17,2500.95868
1975-07-18,1139.98017
1975-07-19,1139.98017
1975-07-20,1139.98017
1975-07-21,1487.98017
1975-07-22,1487.98017
1975-07-23,1487.98017
1975-07-24,1260.9719
1975-07-25,1260.9719
1975-07-26,1260.9719
1975-07-27,1260.9719
1975-07-28,1260.9719
1975-07-29,1276.97851
1975-07-30,1011.98678
1975-07-31,1011.98678
1975-08-01,1011.98678
1975-08-02,1011.98678
1975-08-03,1011.98678
1975-08-04,594.98182
1975-08-05,594.98182
1975-08-06,594.98182
1975-08-07,594.98182
1975-08-08,594.98182
1975-08-09,594.98182
1975-08-10,594.98182
1975-08-11,568.99835
1975-08-12,568.99835
1975-08-13,338.99504
1975-08-14,338.99504
1975-08-15,328.99835
1975-08-16,328.99835
1975-08-17,328.99835
1975-08-18,328.99835
1975-08-19,328.99835
1975-08-20,328.99835
1975-08-21,328.99835
1975-08-22,328.99835
1975-08-23,328.99835
1975-08-24,328.99835
1975-08-25,328.99835
1975-08-26,328.99835
1975-08-27,328.99835
1975-08-28,328.99835
1975-08-29,328.99835
1975-08-30,328.99835
1975-08-31,328.99835
1975-09-01,288.0
1975-09-02,288.0
1975-09-03,288.0
1975-09-04,288.0
1975-09-05,288.0
1975-09-06,288.0
1975-09-07,288.0
1975-09-08,288.0
1975-09-09,292.99835
1975-09-10,292.99835
1975-09-11,292.99835
1975-09-12,292.99835
1975-09-13,292.99835
1975-09-14,292.99835
1975-09-15,292.99835
1975-09-16,295.99339
1975-09-17,295.99339
1975-09-18,295.99339
1975-09-19,292.99835
1975-09-20,292.99835
1975-09-21,292.99835
1975-09-22,292.99835
1975-09-23,292.99835
1975-09-24,292.99835
1975-09-25,292.99835
1975-09-26,292.99835
1975-09-27,292.99835
1975-09-28,292.99835
1975-09-29,292.99835
1975-09-30,292.99835
1975-10-01,292.99835
1975-10-02,292.99835
1975-10-03,292.99835
1975-10-04,292.99835
1975-10-05,292.99835
1975-10-06,292.99835
1975-10-07,292.99835
1975-10-08,312.0
1975-10-09,312.0
1975-10-10,312.0
1975-10-11,312.0
1975-10-12,312.0
1975-10-13,312.0
1975-10-14,312.0
1975-10-15,312.0
1975-10-16,312.0
1975-10-17,312.0
1975-10-18,312.0
1975-10-19,312.0
1975-10-20,312.0
1975-10-21,396.99174
1975-10-22,396.99174
1975-10-23,396.99174
1975-10-24,396.99174
1975-10-25,396.99174
1975-10-26,396.99174
1975-10-27,396.99174
1975-10-28,396.99174
1975-10-29,396.99174
1975-10-30,396.99174
1975-10-31,197.99008
1975-11-01,197.99008
1975-11-02,197.99008
1975-11-03,197.99008
1975-11-04,197.99008
1975-11-05,148.99835
1975-11-06,
1975-11-07,
1975-11-08,
1975-11-09,
1975-11-10,
1975-11-11,
1975-11-12,
1975-11-13,
1975-11-14,
1975-11-15,
1975-11-16,
1975-11-17,
1975-11-18,
1975-11-19,
1975-11-20,
1975-11-21,
1975-11-22,
1975-11-23,
1975-11-24,
1975-11-25,
1975-11-26,
1975-11-27,
1975-11-28,
1975-11-29,
1975-11-30,
1975-12-01,
1975-12-02,
1975-12-03,
1975-12-04,
1975-12-05,
1975-12-06,
1975-12-07,
1975-12-08,
1975-12-09,
1975-12-10,
1975-12-11,
1975-12-12,
1975-12-13,
1975-12-14,
1975-12-15,
1975-12-16,
1975-12-17,
1975-12-18,
1975-12-19,
1975-12-20,
1975-12-21,
1975-12-22,
1975-12-23,
1975-12-24,
1975-12-25,
1975-12-26,
1975-12-27,
1975-12-28,
1975-12-29,
1975-12-30,
1975-12-31,
1976-01-01,
1976-01-02,
1976-01-03,
1976-01-04,
1976-01-05,
1976-01-06,
1976-01-07,
1976-01-08,
1976-01-09,
1976-01-10,
1976-01-11,
1976-01-12,
1976-01-13,
1976-01-14,
1976-01-15,
1976-01-16,
1976-01-17,
1976-01-18,
1976-01-19,
1976-01-20,
1976-01-21,
1976-01-22,
1976-01-23,
1976-01-24,
1976-01-25,
1976-01-26,
1976-01-27,
1976-01-28,
1976-01-29,
1976-01-30,
1976-01-31,
1976-02-01,
1976-02-02,
1976-02-03,
1976-02-04,
1976-02-05,
1976-02-06,
1976-02-07,
1976-02-08,
1976-02-09,
1976-02-10,
1976-02-11,
1976-02-12,
1976-02-13,
1976-02-14,
1976-02-15,
1976-02-16,
1976-02-17,
1976-02-18,
1976-02-19,
1976-02-20,
1976-02-21,
1976-02-22,
1976-02-23,
1976-02-24,
1976-02-25,
1976-02-26,
1976-02-27,
1976-02-28,
1976-02-29,
1976-03-01,
1976-03-02,
1976-03-03,
1976-03-04,
1976-03-05,
1976-03-06,
1976-03-07,
1976-03-08,
1976-03-09,
1976-03-10,
1976-03-11,
1976-03-12,
1976-03-13,
1976-03-14,
1976-03-15,
1976-03-16,
1976-03-17,
1976-03-18,
1976-03-19,
1976-03-20,
1976-03-21,
1976-03-22,
1976-03-23,
1976-03-24,
1976-03-25,
1976-03-26,
1976-03-27,
1976-03-28,
1976-03-29,
1976-03-30,
1976-03-31,
1976-04-01,
1976-04-02,
1976-04-03,
1976-04-04,
1976-04-05,
1976-04-06,
1976-04-07,
1976-04-08,
1976-04-09,
1976-04-10,
1976-04-11,
1976-04-12,
1976-04-13,
1976-04-14,
1976-04-15,
1976-04-16,
1976-04-17,
1976-04-18,
1976-04-19,
1976-04-20,
1976-04-21,
1976-04-22,
1976-04-23,
1976-04-24,
1976-04-25,
1976-04-26,
1976-04-27,
1976-04-28,
1976-04-29,
1976-04-30,
1976-05-01,
1976-05-02,
1976-05-03,
1976-05-04,
1976-05-05,
1976-05-06,
1976-05-07,
1976-05-08,
1976-05-09,
1976-05-10,
1976-05-11,
1976-05-12,
1976-05-13,
1976-05-14,
1976-05-15,
1976-05-16,
1976-05-17,
1976-05-18,
1976-05-19,
1976-05-20,
1976-05-21,
1976-05-22,
1976-05-23,
1976-05-24,
1976-05-25,
1976-05-26,
1976-05-27,
1976-05-28,
1976-05-29,
1976-05-30,
1976-05-31,103.1405
1976-06-01,30.78347
1976-06-02,30.78347
1976-06-03,30.78347
1976-06-04,30.78347
1976-06-05,30.78347
1976-06-06,30.78347
1976-06-07,30.78347
1976-06-08,30.78347
1976-06-09,30.78347
1976-06-10,30.78347
1976-06-11,30.78347
1976-06-12,30.78347
1976-06-13,30.78347
1976-06-14,30.78347
1976-06-15,30.78347
1976-06-16,30.78347
1976-06-17,30.78347
1976-06-18,30.78347
1976-06-19,30.78347
1976-06-20,30.78347
1976-06-21,30.78347
1976-06-22,30.78347
1976-06-23,30.78347
1976-06-24,30.78347
1976-06-25,30.78347
1976-06-26,30.78347
1976-06-27,30.78347
1976-06-28,30.78347
1976-06-29,30.78347
1976-06-30,892.97851
1976-07-01,892.97851
1976-07-02,915.98678
1976-07-03,915.98678
1976-07-04,915.98678
1976-07-05,915.98678
1976-07-06,864.99174
1976-07-07,903.98678
1976-07-08,903.98678
1976-07-09,915.98678
1976-07-10,915.98678
1976-07-11,915.98678
1976-07-12,884.98512
1976-07-13,872.98512
1976-07-14,872.98512
1976-07-15,872.98512
1976-07-16,856.97851
1976-07-17,856.97851
1976-07-18,856.97851
1976-07-19,834.98182
1976-07-20,834.98182
1976-07-21,547.99339
1976-07-22,547.99339
1976-07-23,528.99174
1976-07-24,528.99174
1976-07-25,528.99174
1976-07-26,528.99174
1976-07-27,528.99174
1976-07-28,403.00165
1976-07-29,403.00165
1976-07-30,403.00165
1976-07-31,403.00165
1976-08-01,403.00165
1976-08-02,427.99339
1976-08-03,283.00165
1976-08-04,283.00165
1976-08-05,283.00165
1976-08-06,283.00165
1976-08-07,283.00165
1976-08-08,283.00165
1976-08-09,273.00496
1976-08-10,273.00496
1976-08-11,173.99008
1976-08-12,173.99008
1976-08-13,170.99504
1976-08-14,170.99504
1976-08-15,170.99504
1976-08-16,170.99504
1976-08-17,170.99504
1976-08-18,170.99504
1976-08-19,170.99504
1976-08-20,170.99504
1976-08-21,170.99504
1976-08-22,170.99504
1976-08-23,170.99504
1976-08-24,170.99504
1976-08-25,170.99504
1976-08-26,170.99504
1976-08-27,170.99504
1976-08-28,170.99504
1976-08-29,170.99504
1976-08-30,170.99504
1976-08-31,170.99504
1976-09-01,120.0
1976-09-02,120.0
1976-09-03,120.0
1976-09-04,120.0
1976-09-05,120.0
1976-09-06,120.0
1976-09-07,120.0
1976-09-08,120.0
1976-09-09,120.0
1976-09-10,120.0
1976-09-11,120.0
1976-09-12,120.0
1976-09-13,120.0
1976-09-14,120.0
1976-09-15,120.0
1976-09-16,120.0
1976-09-17,120.0
1976-09-18,120.0
1976-09-19,120.0
1976-09-20,120.0
1976-09-21,120.0
1976-09-22,120.0
1976-09-23,120.0
1976-09-24,120.0
1976-09-25,120.0
1976-09-26,120.0
1976-09-27,120.0
1976-09-28,120.0
1976-09-29,120.0
1976-09-30,120.0
1976-10-01,33.99669
1976-10-02,33.99669
1976-10-03,33.99669
1976-10-04,33.99669
1976-10-05,33.99669
1976-10-06,33.99669
1976-10-07,33.99669
1976-10-08,33.99669
1976-10-09,33.99669
1976-10-10,33.99669
1976-10-11,33.99669
1976-10-12,33.99669
1976-10-13,33.99669
1976-10-14,33.99669
1976-10-15,33.99669
1976-10-16,33.99669
1976-10-17,33.99669
1976-10-18,33.99669
1976-10-19,33.99669
1976-10-20,33.99669
1976-10-21,33.99669
1976-10-22,33.99669
1976-10-23,33.99669
1976-10-24,33.99669
1976-10-25,33.99669
1976-10-26,33.99669
1976-10-27,33.99669
1976-10-28,33.99669
1976-10-29,33.99669
1976-10-30,33.99669
1976-10-31,33.99669
1976-11-01,19.99339
1976-11-02,19.99339